This is the latest recevied weather packets stored in our database for station/object GBTWP-2. If no packets are shown the sender has not sent any weather packets the latest 10 day(s).
| Time | Temp. | Humidity | Pressure | Rain* | Wind** | Luminosity | Snow |
|---|---|---|---|---|---|---|---|
| 1777578606 | 11.67° C | 45% | 1016.4 hPa | 0 mm | - | 138 W/m² | - |
| 1777578306 | 10.56° C | 53% | 1016.5 hPa | 0 mm | - | 160 W/m² | - |
| 1777577102 | 10.56° C | 51% | 1016.6 hPa | 0 mm | - | 76 W/m² | - |
| 1777576506 | 10° C | 50% | 1016.7 hPa | 0 mm | - | 170 W/m² | - |
| 1777575006 | 10.56° C | 54% | 1016.8 hPa | 0 mm | - | 342 W/m² | - |
| 1777574406 | 10.56° C | 50% | 1016.7 hPa | 0 mm | - | 137 W/m² | - |
| 1777574106 | 10° C | 50% | 1016.7 hPa | 0 mm | - | 163 W/m² | - |
| 1777573505 | 10° C | 51% | 1016.7 hPa | 0 mm | - | 138 W/m² | - |
| 1777573205 | 10° C | 51% | 1016.7 hPa | 0 mm | - | 149 W/m² | - |
| 1777572006 | 10° C | 53% | 1016.8 hPa | 0 mm | - | 90 W/m² | - |
| 1777570505 | 10° C | 52% | 1017 hPa | 0 mm | - | 146 W/m² | - |
| 1777570202 | 9.44° C | 54% | 1016.7 hPa | 0 mm | - | 279 W/m² | - |
| 1777569605 | 10° C | 51% | 1016.8 hPa | 0 mm | - | 93 W/m² | - |
| 1777569002 | 10.56° C | 53% | 1017.1 hPa | 0 mm | - | 111 W/m² | - |
| 1777568405 | 10° C | 57% | 1017.2 hPa | 0 mm | - | 108 W/m² | - |
| 1777566305 | 10° C | 54% | 1017.2 hPa | 0 mm | - | 300 W/m² | - |
| 1777566005 | 10.56° C | 52% | 1017.3 hPa | 0 mm | - | 199 W/m² | - |
| 1777564802 | 10° C | 53% | 1017.3 hPa | 0 mm | - | 68 W/m² | - |
| 1777564505 | 10° C | 53% | 1017.2 hPa | 0 mm | - | 80 W/m² | - |
| 1777564206 | 10° C | 55% | 1017.3 hPa | 0 mm | - | 197 W/m² | - |
| 1777563905 | 9.44° C | 58% | 1017.2 hPa | 0 mm | - | 106 W/m² | - |
| 1777563605 | 8.89° C | 59% | 1017.3 hPa | 0 mm | - | 99 W/m² | - |
| 1777563302 | 8.89° C | 59% | 1017.2 hPa | 0 mm | - | 69 W/m² | - |
| 1777563002 | 9.44° C | 58% | 1017.3 hPa | 0 mm | - | 77 W/m² | - |
| 1777562705 | 9.44° C | 55% | 1017.2 hPa | 0 mm | - | 71 W/m² | - |
* Rain latest hour (hover to see other rain measurements)
** Current wind speed in m/s (hover to see current wind gust speed)